Location: Perryvale
(54.4667°N, 113.3833°W)
Time: 22:46:15
(UTC+00:00)

Vanguard 1 - Pass Details

Date: 24 May 2024
Orbit: 652 x 3825 km, 34.2° (Epoch: 13 June)

Event Time Altitude Azimuth Distance (km) Brightness Sun altitude
Rises 06:19:37 0° 250° (WSW) 5,125 13.7 -13.1°
Reaches altitude 10° 06:22:53 10° 241° (WSW) 4,513 13.3 -13.3°
Maximum altitude 06:34:22 34° 183° (S) 4,018 12.6 -13.7°
Drops below altitude 10° 06:51:35 10° 129° (SE) 6,739 13.9 -14.2°
Sets 06:58:00 0° 122° (ESE) 7,930 14.3 -14.3°
